When you browse on this site, cookies collect data to enhance your experience and personalize the content and advertising you see.
Visit our Privacy Policy to learn more. By continuing to use the site, you agree to this use of cookies and data.
  • en Belgique
  • Liste des pays
  • À 7 jours
  • Température de l'eau
  • Carte satellitaire
  • Carte météo
  • Widgets météo
  • user-avatar
    Se connecter

    Météo par heure à Budilovka

    Ce jour, 19 Juin, Mercredi

    Heure Température Précipitation Vent Pression Humidité
    00:00 +18°C° 0.2 mm 3 m/s 740 mmHg 92%
    01:00 +17°C° 0 mm 3 m/s 740 mmHg 92%
    02:00 +17°C° 0 mm 3 m/s 740 mmHg 92%
    03:00 +17°C° 0 mm 3 m/s 740 mmHg 93%
    04:00 +17°C° 0 mm 3 m/s 740 mmHg 92%
    05:00 +17°C° 0 mm 3 m/s 741 mmHg 91%
    06:00 +18°C° 0 mm 2 m/s 741 mmHg 90%
    07:00 +19°C° 0 mm 2 m/s 741 mmHg 85%
    08:00 +21°C° 0 mm 2 m/s 741 mmHg 79%
    09:00 +24°C° 0 mm 2 m/s 742 mmHg 75%
    10:00 +24°C° 0.2 mm 2 m/s 742 mmHg 69%
    11:00 +25°C° 0.2 mm 2 m/s 742 mmHg 63%
    12:00 +26°C° 0.2 mm 2 m/s 742 mmHg 57%
    13:00 +26°C° 0.2 mm 3 m/s 742 mmHg 58%
    14:00 +26°C° 0.2 mm 3 m/s 742 mmHg 59%
    15:00 +26°C° 0.2 mm 3 m/s 742 mmHg 61%
    16:00 +26°C° 0.1 mm 3 m/s 742 mmHg 64%
    17:00 +26°C° 0.1 mm 3 m/s 742 mmHg 67%
    18:00 +25°C° 0.1 mm 3 m/s 742 mmHg 70%
    19:00 +24°C° 0 mm 2 m/s 742 mmHg 74%
    20:00 +21°C° 0 mm 2 m/s 742 mmHg 78%
    21:00 +19°C° 0 mm 2 m/s 742 mmHg 82%
    22:00 +19°C° 0 mm 2 m/s 742 mmHg 81%
    23:00 +19°C° 0 mm 1 m/s 742 mmHg 80%

    Demain, 20 Juin, Jeudi

    Heure Température Précipitation Vent Pression Humidité
    00:00 +18°C° 0 mm 1 m/s 742 mmHg 79%
    01:00 +16°C° 0 mm 1 m/s 742 mmHg 79%
    02:00 +16°C° 0 mm 1 m/s 743 mmHg 80%
    03:00 +15°C° 0 mm 1 m/s 743 mmHg 81%
    04:00 +16°C° 0 mm 1 m/s 743 mmHg 82%
    05:00 +18°C° 0 mm 1 m/s 743 mmHg 83%
    06:00 +18°C° 0 mm 1 m/s 743 mmHg 84%
    07:00 +20°C° 0 mm 1 m/s 743 mmHg 78%
    08:00 +22°C° 0 mm 1 m/s 743 mmHg 72%
    09:00 +23°C° 0 mm 1 m/s 743 mmHg 67%
    10:00 +24°C° 0 mm 2 m/s 744 mmHg 63%
    11:00 +25°C° 0 mm 2 m/s 744 mmHg 59%
    12:00 +26°C° 0 mm 2 m/s 744 mmHg 56%
    13:00 +27°C° 0 mm 2 m/s 744 mmHg 54%
    14:00 +27°C° 0 mm 2 m/s 743 mmHg 53%
    15:00 +27°C° 0 mm 2 m/s 743 mmHg 51%
    16:00 +27°C° 0 mm 2 m/s 743 mmHg 55%
    17:00 +27°C° 0 mm 2 m/s 743 mmHg 59%
    18:00 +27°C° 0 mm 2 m/s 743 mmHg 62%
    19:00 +25°C° 0 mm 1 m/s 743 mmHg 66%
    20:00 +23°C° 0 mm 1 m/s 743 mmHg 70%
    21:00 +21°C° 0 mm 1 m/s 743 mmHg 73%
    22:00 +21°C° 0 mm 1 m/s 743 mmHg 75%
    23:00 +20°C° 0 mm 1 m/s 743 mmHg 76%

    Après-demain, 21 Juin, Vendredi

    Heure Température Précipitation Vent Pression Humidité
    00:00 +19°C° 0 mm 1 m/s 744 mmHg 78%
    01:00 +19°C° 0 mm 1 m/s 744 mmHg 79%
    02:00 +18°C° 0 mm 1 m/s 744 mmHg 81%
    03:00 +18°C° 0 mm 1 m/s 744 mmHg 82%
    04:00 +19°C° 0 mm 1 m/s 744 mmHg 82%
    05:00 +19°C° 0 mm 1 m/s 744 mmHg 83%
    06:00 +20°C° 0 mm 1 m/s 744 mmHg 83%
    07:00 +21°C° 0 mm 1 m/s 744 mmHg 78%
    08:00 +23°C° 0 mm 2 m/s 745 mmHg 73%
    09:00 +25°C° 0 mm 2 m/s 745 mmHg 68%
    10:00 +26°C° 0 mm 2 m/s 745 mmHg 63%
    11:00 +26°C° 0 mm 2 m/s 745 mmHg 59%
    12:00 +27°C° 0 mm 2 m/s 745 mmHg 54%
    13:00 +27°C° 0 mm 2 m/s 744 mmHg 55%
    14:00 +27°C° 0 mm 2 m/s 744 mmHg 55%
    15:00 +27°C° 0 mm 2 m/s 744 mmHg 56%
    16:00 +27°C° 0 mm 2 m/s 744 mmHg 58%
    17:00 +27°C° 0 mm 2 m/s 744 mmHg 60%
    18:00 +27°C° 0 mm 1 m/s 744 mmHg 63%
    19:00 +25°C° 0 mm 1 m/s 744 mmHg 66%
    20:00 +24°C° 0 mm 1 m/s 744 mmHg 70%
    21:00 +22°C° 0 mm 1 m/s 744 mmHg 73%
    22:00 +21°C° 0 mm 1 m/s 744 mmHg 74%
    23:00 +21°C° 0 mm 1 m/s 744 mmHg 76%

    22 Juin, Samedi

    Heure Température Précipitation Vent Pression Humidité
    00:00 +20°C° 0 mm 1 m/s 744 mmHg 77%
    01:00 +20°C° 0 mm 1 m/s 744 mmHg 79%
    02:00 +19°C° 0 mm 1 m/s 744 mmHg 81%
    03:00 +19°C° 0 mm 1 m/s 744 mmHg 83%
    04:00 +19°C° 0 mm 1 m/s 744 mmHg 83%
    05:00 +20°C° 0 mm 1 m/s 744 mmHg 83%
    06:00 +20°C° 0 mm 1 m/s 744 mmHg 83%
    07:00 +21°C° 0 mm 2 m/s 744 mmHg 78%
    08:00 +23°C° 0 mm 2 m/s 744 mmHg 73%
    09:00 +25°C° 0 mm 2 m/s 745 mmHg 68%
    10:00 +26°C° 0 mm 2 m/s 745 mmHg 64%
    11:00 +27°C° 0 mm 3 m/s 745 mmHg 59%
    12:00 +28°C° 0 mm 3 m/s 745 mmHg 55%
    13:00 +28°C° 0 mm 3 m/s 745 mmHg 55%
    14:00 +29°C° 0 mm 3 m/s 744 mmHg 55%
    15:00 +29°C° 0 mm 3 m/s 744 mmHg 55%
    16:00 +28°C° 0 mm 3 m/s 744 mmHg 58%
    17:00 +28°C° 0 mm 2 m/s 744 mmHg 61%
    18:00 +28°C° 0 mm 2 m/s 743 mmHg 64%
    19:00 +26°C° 0 mm 2 m/s 743 mmHg 67%
    20:00 +24°C° 0 mm 1 m/s 744 mmHg 70%
    21:00 +23°C° 0 mm 1 m/s 744 mmHg 74%
    22:00 +22°C° 0 mm 1 m/s 744 mmHg 75%
    23:00 +21°C° 0 mm 1 m/s 744 mmHg 77%

    23 Juin, Dimanche

    Heure Température Précipitation Vent Pression Humidité
    00:00 +21°C° 0 mm 1 m/s 744 mmHg 78%
    01:00 +20°C° 0 mm 1 m/s 744 mmHg 79%
    02:00 +20°C° 0 mm 1 m/s 744 mmHg 81%
    03:00 +20°C° 0 mm 1 m/s 744 mmHg 82%
    04:00 +20°C° 0 mm 1 m/s 744 mmHg 80%
    05:00 +21°C° 0 mm 1 m/s 744 mmHg 80%
    06:00 +22°C° 0 mm 1 m/s 744 mmHg 80%
    07:00 +23°C° 0 mm 1 m/s 745 mmHg 75%
    08:00 +25°C° 0 mm 1 m/s 745 mmHg 69%
    09:00 +26°C° 0 mm 1 m/s 745 mmHg 64%
    10:00 +27°C° 0 mm 2 m/s 745 mmHg 60%
    11:00 +28°C° 0 mm 2 m/s 745 mmHg 55%
    12:00 +29°C° 0 mm 2 m/s 745 mmHg 50%
    13:00 +29°C° 0 mm 2 m/s 745 mmHg 51%
    14:00 +29°C° 0 mm 2 m/s 745 mmHg 51%
    15:00 +29°C° 0 mm 2 m/s 744 mmHg 51%
    16:00 +29°C° 0 mm 2 m/s 744 mmHg 54%
    17:00 +29°C° 0 mm 2 m/s 744 mmHg 56%
    18:00 +29°C° 0 mm 1 m/s 743 mmHg 59%
    19:00 +27°C° 0 mm 1 m/s 743 mmHg 62%
    20:00 +25°C° 0 mm 1 m/s 743 mmHg 65%
    21:00 +24°C° 0 mm 1 m/s 743 mmHg 67%
    22:00 +23°C° 0 mm 1 m/s 743 mmHg 69%
    23:00 +21°C° 0 mm 2 m/s 743 mmHg 70%

    24 Juin, Lundi

    Heure Température Précipitation Vent Pression Humidité
    00:00 +21°C° 0 mm 2 m/s 743 mmHg 71%
    01:00 +20°C° 0 mm 2 m/s 743 mmHg 72%
    02:00 +20°C° 0 mm 2 m/s 743 mmHg 73%
    03:00 +20°C° 0 mm 2 m/s 743 mmHg 75%
    04:00 +20°C° 0 mm 2 m/s 743 mmHg 76%
    05:00 +20°C° 0 mm 2 m/s 743 mmHg 78%
    06:00 +21°C° 0 mm 2 m/s 743 mmHg 79%
    07:00 +23°C° 0 mm 2 m/s 743 mmHg 74%
    08:00 +25°C° 0 mm 2 m/s 744 mmHg 69%
    09:00 +27°C° 0 mm 3 m/s 744 mmHg 64%
    10:00 +28°C° 0 mm 3 m/s 744 mmHg 61%
    11:00 +29°C° 0 mm 4 m/s 743 mmHg 57%
    12:00 +30°C° 0 mm 4 m/s 743 mmHg 54%
    13:00 +30°C° 0.2 mm 4 m/s 743 mmHg 53%
    14:00 +30°C° 0.2 mm 3 m/s 743 mmHg 53%
    15:00 +30°C° 0.2 mm 3 m/s 743 mmHg 53%
    16:00 +30°C° 0.2 mm 3 m/s 742 mmHg 57%
    17:00 +29°C° 0.2 mm 3 m/s 742 mmHg 61%
    18:00 +29°C° 0.2 mm 2 m/s 742 mmHg 65%
    19:00 +27°C° 0.2 mm 2 m/s 742 mmHg 67%
    20:00 +26°C° 0.2 mm 2 m/s 742 mmHg 70%
    21:00 +24°C° 0.2 mm 2 m/s 742 mmHg 72%
    22:00 +23°C° 0.1 mm 2 m/s 742 mmHg 74%
    23:00 +22°C° 0.1 mm 1 m/s 741 mmHg 76%
    Voir plus